This is the latest recevied weather packets stored in our database for station/object N8TWM-13. If no packets are shown the sender has not sent any weather packets the latest 1 day(s).
| Time | Temp. | Humidity | Pressure | Rain* | Wind** | Luminosity | Snow |
|---|---|---|---|---|---|---|---|
| 1778023258 | 13.89° C | 95% | 1008.1 hPa | 10.67 mm | 0 m/s | 3 W/m² | - |
| 1778022954 | 13.89° C | 95% | 1008.3 hPa | 6.6 mm | 0 m/s | 0 W/m² | - |
| 1778022653 | 14.44° C | 95% | 1007.9 hPa | 1.78 mm | 0 m/s | 4 W/m² | - |
| 1778022350 | 14.44° C | 95% | 1007.7 hPa | 1.27 mm | 0 m/s | 10 W/m² | - |
| 1778022047 | 14.44° C | 94% | 1007.8 hPa | 1.27 mm | 0 m/s | 24 W/m² | - |
| 1778021744 | 14.44° C | 94% | 1007.8 hPa | 1.78 mm | 0 m/s | 29 W/m² | - |
| 1778021440 | 14.44° C | 94% | 1007.5 hPa | 3.05 mm | 0 m/s | 13 W/m² | - |
| 1778021137 | 14.44° C | 94% | 1007.8 hPa | 3.05 mm | 0 m/s | 19 W/m² | - |
| 1778020834 | 14.44° C | 94% | 1008 hPa | 3.05 mm | 0 m/s | 19 W/m² | - |
| 1778020531 | 14.44° C | 94% | 1008.1 hPa | 4.83 mm | 0 m/s | 20 W/m² | - |
| 1778020227 | 14.44° C | 94% | 1008.5 hPa | 6.1 mm | 0 m/s | 18 W/m² | - |
| 1778019924 | 14.44° C | 94% | 1008.3 hPa | 6.1 mm | 0 m/s | 27 W/m² | - |
| 1778019619 | 14.44° C | 93% | 1008 hPa | 6.1 mm | 0 m/s | 27 W/m² | - |
| 1778019317 | 14.44° C | 93% | 1007.9 hPa | 6.1 mm | 0 m/s | 23 W/m² | - |
| 1778019014 | 14.44° C | 93% | 1008.1 hPa | 6.1 mm | 0 m/s | 20 W/m² | - |
| 1778018711 | 14.44° C | 93% | 1008.1 hPa | 10.67 mm | 0 m/s | 16 W/m² | - |
| 1778018409 | 14.44° C | 93% | 1008.4 hPa | 30.73 mm | 0 m/s | 16 W/m² | - |
| 1778018107 | 14.44° C | 92% | 1008.3 hPa | 35.31 mm | 0 m/s | 18 W/m² | - |
| 1778017804 | 15° C | 92% | 1008.1 hPa | 18.54 mm | 0 m/s | 8 W/m² | - |
| 1778017502 | 15° C | 92% | 1007.9 hPa | 3.05 mm | 0 m/s | 4 W/m² | - |
| 1778017198 | 15° C | 92% | 1007.7 hPa | 0 mm | 0 m/s | 17 W/m² | - |
| 1778016896 | 15° C | 91% | 1007.4 hPa | 0 mm | 0 m/s | 39 W/m² | - |
| 1778016592 | 15.56° C | 91% | 1007.3 hPa | 0 mm | 0 m/s | 60 W/m² | - |
| 1778016289 | 15.56° C | 91% | 1007.7 hPa | 0 mm | 0 m/s | 40 W/m² | - |
| 1778015985 | 15.56° C | 91% | 1007.4 hPa | 0 mm | 0 m/s | 83 W/m² | - |
* Rain latest hour (hover to see other rain measurements)
** Current wind speed in m/s (hover to see current wind gust speed)